NOAA 16 DEB, 41426

Orbit data source: Space-Track

NOAA 16 DEB, 41426 is space debris in SSO originally from a launch on Thu, 21 Sep 2000 UTC launched from the Air Force Western Test Range (AFWTR). Debris objects in space refer to the collection of defunct objects orbiting the Earth. Examples of debris include non-operational satellites, rocket bodies, and fragments generated from explosions, collisions, or faulty payload assembly.

Loading next visibility...
NOAA 16 DEB details
Identifier
41426, 2000-055LF
Orbit
SSO
Last TLE update1 day ago
Origin
Flag of USNOAA (US)
ManufacturerUnknown
MissionSpacecraft
Bus & MotorUnknown
MassUnknown
Launch date (UTC)
2000-09-21 (24 years ago)
Launch vehicleUnknown
Launch site
Air Force Western Test Range (AFWTR)
Object type
Payload
Rocket body
Debris
Shape & HBRUnknown
Radar Cross SectionSmall (<0.1 m²)

Expand to show TLE details & history

TLE from 1 day ago
0 NOAA 16 DEB
1 41426U 00055LF  24347.30870093  .00029761  00000-0  82234-2 0  9993
2 41426  98.9189 109.6796 0016224 295.1331  64.8176 14.46548536456418
Epoch: 2024-12-12T07:24Z
Definitive object data (Epoch: 2024-12-12T07:24:31.76Z)
Latitude-0.00002°
Longitude-82.94362°
Altitude734.99 km
Speed7.49 km/s
True Right ascension07h 18m 43s
True Declination0° 00' 00"
Sunlit
Object was in full shadow at TLE epoch
Visualization TLE readout
Latitude63.23705°
Longitude-99.86911°
Altitude755.378 km
Speed7.479 km/s
Apparent Right ascension20h 39m 32s
Apparent Declination49° 42' 17"
Sunlit
Object is in full shadow
Visualization observer readout
Local Sidereal Time07:06:01
Azimuth345.123° N
Elevation1.954°
Doppler factor1
Orbital elements
Apogee altitude745.616 km
Perigee altitude722.538 km
Semi-major axis7,112.214 km
Eccentricity0.0016224
Inclination98.9189°
RAAN109.6796°
Arg. of periapsis295.1331°
True anomaly64.98599°
Mean anomaly64.8176°
Eccentric anomaly64.90178°
Mean motion3.61856 °/min
BSTAR0.0082234
Orbital period99.49 mins
Loading maneuver chart data...
Loading historical data...
Loading historical data...
Loading historical data...
Loading historical data...
Loading historical data...
Loading historical data...
Loading historical data...

NOAA 16 DEB Visibility forecast

Observer location: undefined°, undefined

Span
Click to sort rows by Start time (UTC) header in descending order
Start Az.
Max El. time (UTC)
Max El. Az.
Max El.
End time (UTC)
End Az.
7 mins2024-12-13 20:31:24.176Z42.238° NE2024-12-13 20:34:24.176Z86.294° E25.93°2024-12-13 20:38:24.176Z152.026° SSE
7 mins2024-12-13 22:10:24.176Z340.481° N2024-12-13 22:13:24.176Z286.868° WNW26.598°2024-12-13 22:17:24.176Z232.855° WSW
7 mins2024-12-14 07:41:24.176Z128.566° SE2024-12-14 07:44:24.176Z78.839° E31.032°2024-12-14 07:48:24.176Z7.484° NNE
|